Погода в Мискове

Россия / Костромская область     58°05′39″N   41°04′15″E
темп.,
°C
ветер,
м/с
пор.,
м/с
влажн.,
%
обл.,
%
осадки,
мм/ч
давл.,
гПа
погр.,
м
18 апреля, вс
вс1800:00+5св28830 0.0 1026159
03:00+3св3108328 0.0 1026201
06:00+4всв31081100 0.0 1026277
09:00+8всв4858100 0.0 1026613
12:00+10всв5848100 0.0 10261301
15:00+11всв4853100 0.0 10261552
18:00+8всв5867100 0.0 1027917
21:00+5всв51073100 0.0 1029775
19 апреля, пн
пн1900:00+4всв4107294 0.0 1029611
03:00+2всв41070100 0.0 1030490
06:00+1всв41171100 0.0 1030534
09:00+4в5952100 0.0 1031876
12:00+7в584347 0.0 10301606
15:00+9в573634 0.0 10291973
18:00+8в484128 0.0 10301709
21:00+4в3115538 0.0 1030430
20 апреля, вт
вт2000:00+2в41257100 0.0 1030547
03:00+1в4126286 0.0 1030457
06:000в4136297 0.0 1030514
09:00+5вюв5104977 0.0 1029739
12:00+9вюв694382 0.0 10281462
15:00+10вюв594541 0.0 10261575
18:00+10вюв5104862 0.0 10251487
21:00+6вюв51346100 0.0 1024708
21 апреля, ср
ср2100:00+4вюв51449100 0.0 1022771
03:00+4в61551100 0.0 1019847
06:00+3вюв71760100 0.1 10151039
09:00+1вюв71794100 1.3 1014814
12:00+2вюв71687100 1.1 1012855
15:00+3юв71690100 1.3 1011909
18:00+4юв71790100 0.3 1010910
21:00+5юв71591100 1.1 10091104
22 апреля, чт
чт2200:00+5ююв71485100 0.2 10101301
03:00+5ю71481100 0.4 10121349
06:00+4ю61281100 0.1 10141227
09:00+4ююз51092100 0.2 10161031
12:00+5юз51286100 0.3 10191300
15:00+8юз4873100 0.4 10201102
18:00+8зюз2475100 0.1 1022170
21:00+5ююв228793 0.1 102316